Content
SEND FEEDBACK

Daily
Averages
Monthly
Summary
Brazil

SÃO PAULO, SÃO PAULO


Home > South America > Brazil > São Paulo
Elevation: 2634 feet     Latitude: 23 37S     Longitude: 046 39W

WEATHER
 
SELECT A DAY
Number of Records: 156,315;   Date Range: 6/30/96 - 4/16/14
 
SHARE

PRINT THIS DATA

[ ← Previous Day ]
WEATHER ALMANAC - FEBRUARY 13, 2013
[ Next Day → ]
[ °C ]   °F
Weather ElementAverageHighLow
Temperature68.3 °F85 °F (4:00 pm) (7:00 pm)
Dewpoint59.9 °F66.2 °F (5:00 pm) (7:00 pm)
Humidity67.2 %88 % (7:30 pm)41 % (4:00 pm)
Barometer26.92 in30.06 in (10:00 am) (7:00 pm)
Wind Speed5.9 mph17.3 mph (7:15 pm)
Wind Gust24.2 mph (7:30 pm)
Weather ElementAverage
Visibility6.5 mi
Wind DirectionSSE (174.2 °)

Weather ElementTotal
Precipitation---
Heating Degree Days22.5 (Base 65)
Averaged from 32 records on February 13, 2013
WEATHER CONDITIONS BREAKOUT
WIND DIRECTION BREAKOUT
WEATHER BY HOUR - FEBRUARY 13, 2013
[ °C ]   °F
Local TimeTemperatureDewpointHumidityBarometerVisibilityWind DirectionWind SpeedGust SpeedPrecipitationEventsConditions
1:00 AM73.4 °F64.4 °F73 %30.04 inSSE (160°)3.5 mphClear
2:00 AM73.4 °F64.4 °F73 %30.01 inSSE (150°)4.6 mphClear
3:00 AM73.4 °F64.4 °F73 %30.01 inSSE (160°)3.5 mphClear
4:00 AM72.0 °F64.0 °F68 %12.0 miSouth (170°)4.6 mphClear
4:00 AM73.4 °F64.4 °F73 %30.01 inSouth (170°)4.6 mphClear
5:00 AM71.6 °F62.6 °F73 %29.98 inENE (70°)2.3 mphClear
6:00 AM73.4 °F62.6 °F69 %29.98 inNE (50°)3.5 mphClear
7:00 AM73.4 °F64.4 °F73 %29.98 inNE (40°)2.3 mphClear
8:00 AM73.4 °F64.4 °F73 %30.01 inNNE (20°)3.5 mphClear
9:00 AM75.2 °F62.6 °F65 %30.01 inNE (40°)2.3 mphClear
10:00 AM75.0 °F65.0 °F63 %12.0 miWSW (250°)5.8 mphScattered Clouds
10:00 AM75.2 °F64.4 °F69 %30.06 inWSW (250°)5.8 mphClear
11:00 AM78.8 °F62.6 °F57 %30.06 in6.2 miWNW (300°)3.5 mphPartly Cloudy
12:00 PM80.6 °F62.6 °F54 %30.04 in6.2 miNW (310°)4.6 mphPartly Cloudy
1:00 PM84.2 °F62.6 °F48 %30.04 in6.2 miNW (310°)6.9 mphScattered Clouds
2:00 PM84.2 °F62.6 °F48 %30.04 in6.2 miNW (320°)9.2 mph20.7 mphScattered Clouds
3:00 PM84.2 °F62.6 °F48 %6.2 miWNW (300°)8.1 mph19.6 mphPartly Cloudy
4:00 PM85.0 °F65.0 °F41 %12.0 miWNW (300°)4.6 mphOvercast
4:00 PM84.2 °F64.4 °F51 %29.98 in6.2 miWNW (300°)4.6 mphPartly Cloudy
5:00 PM80.6 °F66.2 °F61 %6.2 miSouth (170°)8.1 mphThunderstormThunderstorm
6:00 PM77.0 °F66.2 °F69 %29.98 in6.2 miSE (140°)8.1 mphPartly Cloudy
6:30 PM73.4 °F62.6 °F69 %6.2 miEast (80°)9.2 mph21.9 mphThunderstormThunderstorm
7:00 PM0.0 °F0.0 °F30.04 in3.1 miESE (110°)10.4 mphRain-ThunderstormThunderstorms and Rain
7:15 PM69.8 °F64.4 °F83 %30.04 in1.9 miSE (130°)17.3 mphRain-ThunderstormHeavy Thunderstorms and Rain
7:30 PM68.0 °F64.4 °F88 %30.06 in0.9 miSE (140°)11.5 mph24.2 mphRain-ThunderstormHeavy Thunderstorms and Rain
7:45 PM0.0 °F62.6 °F30.04 in4.3 miSSE (160°)15.0 mphRain-ThunderstormThunderstorms and Rain
8:00 PM0.0 °F0.0 °F30.06 in3.1 miSouth (170°)5.8 mphRain-ThunderstormLight Thunderstorms and Rain
8:35 PM69.8 °F64.4 °F83 %30.04 in6.2 miSE (140°)6.9 mphMostly Cloudy
9:00 PM69.8 °F64.4 °F83 %30.04 in6.2 miSSE (150°)4.6 mphMostly Cloudy
10:00 PM71.0 °F63.0 °F69 %12.0 miCalmPartly Cloudy
10:00 PM71.6 °F62.6 °F73 %30.04 inCalmClear
11:00 PM71.6 °F64.4 °F78 %30.06 inNNW (340°)3.5 mphClear
Hourly data recorded from SBSP, located 0.93 miles away from São Paulo, São Paulo







STORIES FROM OUR PARTNERS